Location: Fort Worth, Tx
(32.7431°N, 97.3695°W)
Time: 00:16:19
(UTC-04:00)

A-11 Canister half - Pass Details

Date: 21 March 2026
Orbit: 1523 x 1685 km, 47.3° (Epoch: 20 April)

Event Time Altitude Azimuth Distance (km) Brightness Sun altitude
Rises 07:35:29 0° 191° (S) 4,922 11.4 -12.6°
Reaches altitude 10° 07:39:18 10° 180° (S) 3,934 11.1 -11.8°
Maximum altitude 07:47:19 28° 127° (SE) 2,775 10.9 -10.2°
Drops below altitude 10° 07:55:14 10° 74° (ENE) 3,888 12.7 -8.5°
Sets 07:58:56 0° 63° (ENE) 4,855 13.1 -7.7°
